Regional Weather Roundup
Issued by NWS

Home | Current Version | Previous Version | Text Only | Print | Product List | Glossary On
Versions: 1 2 3 4 5 6 7 8 9 10 11 12 13 14 15 16 17 18 19 20 21 22 23 24 25 26 27
000
ASUS45 KCYS 270210
RWRWY

WYOMING REGIONAL WEATHER ROUNDUP
NATIONAL WEATHER SERVICE CHEYENNE WY
800 PM MDT TUE JUL 26 2016

NOTE:  "FAIR" INDICATES FEW OR NO CLOUDS BELOW 12,000 FEET
WITH NO SIGNIFICANT WEATHER AND/OR OBSTRUCTIONS TO VISIBILITY.

WYZ001-270300-
YELLOWSTONE NATIONAL PARK

CITY           SKY/WX    TMP DP  RH WIND       PRES   REMARKS
LK YELLOWSTONE   N/A     66  35  31 VRB5G18   30.37R
W YELLOWSTONE  NOT AVBL

$$
WYZ002>013-054>058-071-098>099-270300-
NORTHERN WYOMING

CITY           SKY/WX    TMP DP  RH WIND       PRES   REMARKS
JACKSON        CLEAR     79  28  15 NW6       30.17R
CODY           FAIR      81  39  22 NW10G16   30.13R
GREYBULL       FAIR      90  35  14 N16       29.98S
WORLAND        FAIR      85  43  22 CALM      29.99S
SHERIDAN       FAIR      83  48  29 NE5       30.05R
BUFFALO        LGT RAIN  75  52  44 CALM      30.13S
GILLETTE       FAIR      81  48  31 NE18G24   30.08R
HULETT         FAIR      73  57  56 E9        30.10F
NEWCASTLE      FAIR      73  52  46 NE8G18    30.05S

$$
WYZ014>020-022>026-101>103-270300-
CENTRAL WYOMING

CITY           SKY/WX    TMP DP  RH WIND       PRES   REMARKS
BIG PINEY      FAIR      79  29  16 W20G38    30.24R
PINEDALE       FAIR      79  27  14 W21G26    30.23S
DUBOIS         FAIR      75  28  17 S13       30.23R
LANDER         FAIR      82  36  19 SE6       30.09R
RIVERTON       FAIR      84  31  14 N13       30.09R
CASPER         FAIR      86  34  15 NE13      30.08R
DOUGLAS          N/A    N/A N/A N/A MISG      30.05R

$$
WYZ021-027>030-104>119-270300-
SOUTHERN WYOMING

CITY           SKY/WX    TMP DP  RH WIND       PRES   REMARKS
EVANSTON       FAIR      82  17   9 W14       30.25R
KEMMERER         N/A    N/A N/A N/A NW10      30.26R
FORT BRIDGER   CLEAR     84  19   9 W12G17    30.26R
ROCK SPRINGS   FAIR      80  28  15 W3        30.21R
DIXON          FAIR      79  37  21 CALM      30.27R
RAWLINS        FAIR      79  30  16 S20G25    30.21S
SARATOGA       FAIR      77  32  19 MISG      30.26F
LARAMIE        FAIR      73  35  25 SW22G33   30.26R
CHEYENNE       FAIR      78  39  24 S6        30.17R
TORRINGTON     FAIR      75  50  41 S15G28    30.02R
PINE BLUFFS    FAIR      77  45  31 SE3G9     30.13R

$$




USA.gov is the U.S. government's official web portal to all federal, state and local government web resources and services.